| time (UTC) | temp F | wind direction | speed knots | gust knots | rain 1hr in | rain 24hr in | rain mn in | humidity % | barometer mb |
| 20260507160849 | 77 | 217 | 0.9 | 6.1 | 0.00 | 0.00 | 0.00 | 26 | 1016.0 |
| 20260507160344 | 78 | 242 | 2.6 | 6.1 | 0.00 | 0.00 | 0.00 | 24 | 1016.0 |
| 20260507155841 | 78 | 167 | 1.7 | 4.3 | 0.00 | 0.00 | 0.00 | 26 | 1016.5 |
| 20260507155336 | 76 | 244 | 1.7 | 6.1 | 0.00 | 0.00 | 0.00 | 27 | 1016.2 |
| 20260507154834 | 76 | 232 | 2.6 | 6.1 | 0.00 | 0.00 | 0.00 | 27 | 1016.1 |
| 20260507154331 | 77 | 254 | 0.9 | 2.6 | 0.00 | 0.00 | 0.00 | 26 | 1016.4 |
| 20260507153828 | 76 | 236 | 3.5 | 7.0 | 0.00 | 0.00 | 0.00 | 27 | 1016.4 |
| 20260507153324 | 76 | 226 | 3.5 | 4.3 | 0.00 | 0.00 | 0.00 | 26 | 1016.4 |
| 20260507152821 | 77 | 181 | 1.7 | 3.5 | 0.00 | 0.00 | 0.00 | 26 | 1016.1 |
| 20260507152317 | 76 | 213 | 1.7 | 4.3 | 0.00 | 0.00 | 0.00 | 26 | 1016.0 |
| 20260507151813 | 76 | 226 | 1.7 | 5.2 | 0.00 | 0.00 | 0.00 | 27 | 1016.4 |
| 20260507151309 | 75 | 166 | 1.7 | 6.1 | 0.00 | 0.00 | 0.00 | 28 | 1016.4 |
| 20260507150807 | 76 | 156 | 2.6 | 6.1 | 0.00 | 0.00 | 0.00 | 28 | 1016.4 |
| 20260507150303 | 76 | 188 | 1.7 | 4.3 | 0.00 | 0.00 | 0.00 | 28 | 1016.1 |
| 20260507145759 | 76 | 257 | 0.0 | 2.6 | 0.00 | 0.00 | 0.00 | 29 | 1016.2 |
| 20260507145256 | 76 | 202 | 0.0 | 1.7 | 0.00 | 0.00 | 0.00 | 28 | 1016.2 |
| 20260507144753 | 75 | 282 | 0.9 | 2.6 | 0.00 | 0.00 | 0.00 | 27 | 1016.1 |
| 20260507144250 | 75 | 249 | 1.7 | 2.6 | 0.00 | 0.00 | 0.00 | 27 | 1016.2 |
| 20260507143747 | 75 | 164 | 0.0 | 2.6 | 0.00 | 0.00 | 0.00 | 28 | 1016.2 |
| 20260507143244 | 75 | 161 | 0.0 | 1.7 | 0.00 | 0.00 | 0.00 | 26 | 1016.4 |
| 20260507142740 | 74 | 143 | 0.9 | 1.7 | 0.00 | 0.00 | 0.00 | 28 | 1016.1 |
| 20260507142237 | 75 | 114 | 1.7 | 2.6 | 0.00 | 0.00 | 0.00 | 28 | 1016.1 |
| 20260507141733 | 74 | 133 | 1.7 | 3.5 | 0.00 | 0.00 | 0.00 | 29 | 1016.0 |
| 20260507141230 | 73 | 168 | 0.9 | 1.7 | 0.00 | 0.00 | 0.00 | 29 | 1016.1 |
| 20260507140726 | 75 | 141 | 0.9 | 1.7 | 0.00 | 0.00 | 0.00 | 28 | 1016.1 |
| 20260507140224 | 73 | 228 | 0.0 | 1.7 | 0.00 | 0.00 | 0.00 | 29 | 1016.2 |
| 20260507135721 | 74 | 62 | 0.0 | 0.9 | 0.00 | 0.00 | 0.00 | 28 | 1016.1 |
| 20260507135218 | 72 | 164 | 0.0 | 0.9 | 0.00 | 0.00 | 0.00 | 30 | 1016.0 |
| 20260507134714 | 70 | 135 | 0.0 | 1.7 | 0.00 | 0.00 | 0.00 | 32 | 1015.8 |
| 20260507134211 | 69 | 147 | 0.0 | 2.6 | 0.00 | 0.00 | 0.00 | 32 | 1015.7 |
| 20260507133707 | 68 | 263 | 0.9 | 2.6 | 0.00 | 0.00 | 0.00 | 31 | 1015.8 |
| 20260507133204 | 68 | 226 | 2.6 | 3.5 | 0.00 | 0.00 | 0.00 | 32 | 1015.8 |
| 20260507132701 | 67 | 249 | 0.0 | 2.6 | 0.00 | 0.00 | 0.00 | 33 | 1016.0 |
| 20260507132157 | 66 | 272 | 1.7 | 2.6 | 0.00 | 0.00 | 0.00 | 33 | 1015.7 |
| 20260507131654 | 66 | 212 | 0.0 | 2.6 | 0.00 | 0.00 | 0.00 | 34 | 1015.5 |
| 20260507131152 | 66 | 159 | 0.9 | 2.6 | 0.00 | 0.00 | 0.00 | 33 | 1015.7 |
| 20260507130648 | 68 | 89 | 0.0 | 2.6 | 0.00 | 0.00 | 0.00 | 31 | 1015.6 |
| 20260507130146 | 66 | 71 | 1.7 | 4.3 | 0.00 | 0.00 | 0.00 | 33 | 1015.5 |
| 20260507125645 | 66 | 20 | 2.6 | 6.1 | 0.00 | 0.00 | 0.00 | 33 | 1015.6 |
| 20260507125142 | 66 | 51 | 1.7 | 4.3 | 0.00 | 0.00 | 0.00 | 34 | 1015.5 |
| 20260507124638 | 67 | 39 | 1.7 | 4.3 | 0.00 | 0.00 | 0.00 | 32 | 1015.3 |
| 20260507124136 | 66 | 4 | 2.6 | 4.3 | 0.00 | 0.00 | 0.00 | 34 | 1015.4 |
| 20260507123634 | 65 | 56 | 1.7 | 2.6 | 0.00 | 0.00 | 0.00 | 35 | 1015.5 |
| 20260507123131 | 66 | 69 | 0.9 | 2.6 | 0.00 | 0.00 | 0.00 | 34 | 1015.3 |
| 20260507122626 | 65 | 25 | 2.6 | 3.5 | 0.00 | 0.00 | 0.00 | 34 | 1015.5 |
| 20260507122122 | 65 | 45 | 0.0 | 1.7 | 0.00 | 0.00 | 0.00 | 35 | 1015.6 |
| 20260507121618 | 65 | 140 | 1.7 | 2.6 | 0.00 | 0.00 | 0.00 | 34 | 1015.6 |
| 20260507121114 | 66 | 143 | 0.9 | 2.6 | 0.00 | 0.00 | 0.00 | 32 | 1015.2 |
| 20260507120610 | 67 | 89 | 0.0 | 2.6 | 0.00 | 0.00 | 0.00 | 32 | 1015.3 |
| 20260507120107 | 67 | 80 | 0.9 | 5.2 | 0.00 | 0.00 | 0.00 | 33 | 1015.4 |
| 20260507115603 | 66 | 14 | 1.7 | 4.3 | 0.00 | 0.00 | 0.00 | 33 | 1015.4 |
| 20260507115059 | 66 | 38 | 1.7 | 4.3 | 0.00 | 0.00 | 0.00 | 34 | 1015.3 |
| 20260507114555 | 66 | 91 | 0.0 | 3.5 | 0.00 | 0.00 | 0.00 | 35 | 1015.7 |
| 20260507114053 | 66 | 64 | 1.7 | 4.3 | 0.00 | 0.00 | 0.00 | 33 | 1015.4 |
| 20260507113549 | 67 | 103 | 2.6 | 4.3 | 0.00 | 0.00 | 0.00 | 32 | 1015.4 |
| 20260507113047 | 66 | 112 | 2.6 | 3.5 | 0.00 | 0.00 | 0.00 | 34 | 1015.5 |
| 20260507112545 | 66 | 58 | 0.9 | 2.6 | 0.00 | 0.00 | 0.00 | 33 | 1015.4 |
| 20260507112041 | 65 | 332 | 2.6 | 6.1 | 0.00 | 0.00 | 0.00 | 34 | 1015.6 |
| 20260507111538 | 65 | 38 | 1.7 | 2.6 | 0.00 | 0.00 | 0.00 | 34 | 1015.6 |
| 20260507111035 | 65 | 82 | 0.9 | 0.9 | 0.00 | 0.00 | 0.00 | 35 | 1015.5 |
| 20260507110531 | 66 | 92 | 0.9 | 1.7 | 0.00 | 0.00 | 0.00 | 33 | 1015.3 |
| 20260507110028 | 66 | 48 | 1.7 | 2.6 | 0.00 | 0.00 | 0.00 | 33 | 1015.5 |
| 20260507105525 | 66 | 16 | 0.0 | 1.7 | 0.00 | 0.00 | 0.00 | 32 | 1015.4 |
| 20260507105021 | 67 | 96 | 0.0 | 1.7 | 0.00 | 0.00 | 0.00 | 32 | 1015.7 |
| 20260507104519 | 67 | 2 | 1.7 | 2.6 | 0.00 | 0.00 | 0.00 | 32 | 1015.6 |
| 20260507104015 | 67 | 80 | 0.0 | 3.5 | 0.00 | 0.00 | 0.00 | 32 | 1015.6 |
| 20260507103511 | 67 | 24 | 1.7 | 2.6 | 0.00 | 0.00 | 0.00 | 31 | 1015.8 |
| 20260507103007 | 68 | 28 | 1.7 | 3.5 | 0.00 | 0.00 | 0.00 | 31 | 1015.7 |
| 20260507102505 | 68 | 59 | 1.7 | 2.6 | 0.00 | 0.00 | 0.00 | 30 | 1015.7 |
| 20260507102000 | 68 | 62 | 1.7 | 2.6 | 0.00 | 0.00 | 0.00 | 30 | 1015.8 |
| 20260507101456 | 69 | 82 | 0.9 | 2.6 | 0.00 | 0.00 | 0.00 | 30 | 1016.0 |
| 20260507100953 | 69 | 43 | 2.6 | 2.6 | 0.00 | 0.00 | 0.00 | 30 | 1015.7 |
| 20260507100450 | 68 | 21 | 0.9 | 3.5 | 0.00 | 0.00 | 0.00 | 30 | 1015.8 |
| 20260507095948 | 68 | 75 | 1.7 | 4.3 | 0.00 | 0.00 | 0.00 | 30 | 1016.0 |
| 20260507095445 | 68 | 358 | 1.7 | 5.2 | 0.00 | 0.00 | 0.00 | 30 | 1016.1 |
| 20260507094942 | 68 | 59 | 0.9 | 3.5 | 0.00 | 0.00 | 0.00 | 30 | 1015.9 |
| 20260507094438 | 68 | 72 | 1.7 | 3.5 | 0.00 | 0.00 | 0.00 | 30 | 1016.1 |
| 20260507093935 | 68 | 89 | 0.9 | 3.5 | 0.00 | 0.00 | 0.00 | 30 | 1016.2 |
| 20260507093433 | 67 | 69 | 0.9 | 3.5 | 0.00 | 0.00 | 0.00 | 31 | 1016.2 |
| 20260507092931 | 67 | 81 | 0.0 | 3.5 | 0.00 | 0.00 | 0.00 | 31 | 1016.4 |
| 20260507092427 | 67 | 27 | 0.0 | 1.7 | 0.00 | 0.00 | 0.00 | 32 | 1016.2 |
| 20260507091924 | 67 | 49 | 1.7 | 2.6 | 0.00 | 0.00 | 0.00 | 32 | 1016.6 |
| 20260507091420 | 67 | 102 | 0.0 | 1.7 | 0.00 | 0.00 | 0.00 | 32 | 1016.2 |
| 20260507090916 | 67 | 64 | 0.0 | 2.6 | 0.00 | 0.00 | 0.00 | 32 | 1016.4 |
| 20260507090413 | 68 | 54 | 2.6 | 3.5 | 0.00 | 0.00 | 0.00 | 31 | 1016.1 |
| 20260507085909 | 68 | 80 | 0.0 | 2.6 | 0.00 | 0.00 | 0.00 | 31 | 1016.2 |
| 20260507085406 | 67 | 54 | 0.9 | 3.5 | 0.00 | 0.00 | 0.00 | 32 | 1016.5 |
| 20260507084904 | 67 | 24 | 0.9 | 2.6 | 0.00 | 0.00 | 0.00 | 32 | 1016.5 |
| 20260507084400 | 67 | 56 | 0.9 | 2.6 | 0.00 | 0.00 | 0.00 | 32 | 1016.5 |
| 20260507083857 | 67 | 79 | 0.0 | 1.7 | 0.00 | 0.00 | 0.00 | 32 | 1016.8 |
| 20260507083353 | 66 | 91 | 0.9 | 2.6 | 0.00 | 0.00 | 0.00 | 33 | 1016.5 |
| 20260507082850 | 67 | 27 | 0.0 | 1.7 | 0.00 | 0.00 | 0.00 | 33 | 1016.4 |
| 20260507082345 | 67 | 25 | 0.0 | 2.6 | 0.00 | 0.00 | 0.00 | 32 | 1016.6 |
| 20260507081843 | 68 | 49 | 0.0 | 1.7 | 0.00 | 0.00 | 0.00 | 31 | 1016.7 |
| 20260507081339 | 68 | 72 | 1.7 | 3.5 | 0.00 | 0.00 | 0.00 | 31 | 1016.8 |
| 20260507080836 | 68 | 87 | 0.9 | 2.6 | 0.00 | 0.00 | 0.00 | 31 | 1016.8 |
| 20260507080332 | 68 | 64 | 1.7 | 1.7 | 0.00 | 0.00 | 0.00 | 31 | 1016.7 |
| 20260507075827 | 68 | 73 | 1.7 | 3.5 | 0.00 | 0.00 | 0.00 | 31 | 1016.7 |
| 20260507075324 | 68 | 40 | 1.7 | 2.6 | 0.00 | 0.00 | 0.00 | 31 | 1016.9 |
| 20260507074820 | 67 | 89 | 0.9 | 3.5 | 0.00 | 0.00 | 0.00 | 33 | 1016.8 |
| 20260507074318 | 67 | 34 | 0.9 | 1.7 | 0.00 | 0.00 | 0.00 | 33 | 1016.8 |
| 20260507073815 | 68 | 73 | 0.9 | 1.7 | 0.00 | 0.00 | 0.00 | 31 | 1016.7 |
| 20260507073311 | 68 | 72 | 1.7 | 1.7 | 0.00 | 0.00 | 0.00 | 31 | 1016.7 |
| 20260507072809 | 69 | 84 | 1.7 | 1.7 | 0.00 | 0.00 | 0.00 | 30 | 1016.6 |
| 20260507072308 | 69 | 91 | 0.9 | 2.6 | 0.00 | 0.00 | 0.00 | 32 | 1016.7 |
| 20260507071803 | 69 | 70 | 1.7 | 2.6 | 0.00 | 0.00 | 0.00 | 30 | 1016.6 |
| 20260507071300 | 69 | 84 | 1.7 | 2.6 | 0.00 | 0.00 | 0.00 | 29 | 1016.5 |
| 20260507070756 | 69 | 73 | 1.7 | 1.7 | 0.00 | 0.00 | 0.00 | 29 | 1016.5 |
| 20260507070254 | 69 | 109 | 1.7 | 2.6 | 0.00 | 0.00 | 0.00 | 29 | 1016.7 |
| 20260507065750 | 69 | 87 | 1.7 | 2.6 | 0.00 | 0.00 | 0.00 | 29 | 1016.8 |
| 20260507065247 | 70 | 49 | 0.9 | 1.7 | 0.00 | 0.00 | 0.00 | 29 | 1016.6 |
| 20260507064744 | 70 | 100 | 0.0 | 1.7 | 0.00 | 0.00 | 0.00 | 29 | 1016.7 |
| 20260507064243 | 70 | 45 | 0.9 | 3.5 | 0.00 | 0.00 | 0.00 | 29 | 1016.6 |
| 20260507063740 | 70 | 68 | 0.9 | 3.5 | 0.00 | 0.00 | 0.00 | 30 | 1016.6 |
| 20260507063237 | 70 | 37 | 0.9 | 2.6 | 0.00 | 0.00 | 0.00 | 29 | 1016.5 |
| 20260507062734 | 70 | 21 | 1.7 | 2.6 | 0.00 | 0.00 | 0.00 | 30 | 1016.4 |
| 20260507062231 | 70 | 48 | 0.9 | 2.6 | 0.00 | 0.00 | 0.00 | 30 | 1016.7 |
| 20260507061730 | 70 | 47 | 0.9 | 2.6 | 0.00 | 0.00 | 0.00 | 30 | 1016.6 |
| 20260507061227 | 70 | 102 | 0.0 | 2.6 | 0.00 | 0.00 | 0.00 | 31 | 1016.7 |
| 20260507060725 | 70 | 4 | 0.9 | 1.7 | 0.00 | 0.00 | 0.00 | 30 | 1016.6 |
| 20260507060221 | 71 | 69 | 0.0 | 2.6 | 0.00 | 0.00 | 0.00 | 30 | 1016.7 |
| 20260507055718 | 71 | 44 | 0.0 | 1.7 | 0.00 | 0.00 | 0.00 | 29 | 1016.8 |
| 20260507055213 | 71 | 37 | 0.9 | 1.7 | 0.00 | 0.00 | 0.00 | 29 | 1016.8 |
| 20260507054709 | 71 | 77 | 0.0 | 2.6 | 0.00 | 0.00 | 0.00 | 29 | 1016.6 |
| 20260507054206 | 71 | 17 | 0.0 | 2.6 | 0.00 | 0.00 | 0.00 | 30 | 1016.6 |
| 20260507053704 | 71 | 19 | 1.7 | 2.6 | 0.00 | 0.00 | 0.00 | 29 | 1016.6 |
| 20260507053202 | 71 | 12 | 1.7 | 3.5 | 0.00 | 0.00 | 0.00 | 29 | 1016.8 |
| 20260507052701 | 71 | 34 | 1.7 | 2.6 | 0.00 | 0.00 | 0.00 | 29 | 1016.5 |
| 20260507052156 | 70 | 49 | 0.0 | 1.7 | 0.00 | 0.00 | 0.00 | 30 | 1016.8 |
| 20260507051654 | 71 | 0 | 0.0 | 1.7 | 0.00 | 0.00 | 0.00 | 30 | 1016.6 |
| 20260507051150 | 71 | 83 | 0.9 | 1.7 | 0.00 | 0.00 | 0.00 | 29 | 1016.6 |
| 20260507050647 | 71 | 89 | 0.0 | 1.7 | 0.00 | 0.00 | 0.00 | 29 | 1016.5 |
| 20260507050144 | 71 | 65 | 0.0 | 1.7 | 0.00 | 0.00 | 0.00 | 29 | 1016.7 |
| 20260507045641 | 71 | 60 | 0.9 | 1.7 | 0.00 | 0.00 | 0.00 | 29 | 1016.5 |
| 20260507045137 | 71 | 83 | 0.0 | 1.7 | 0.00 | 0.00 | 0.00 | 29 | 1016.7 |
| 20260507044634 | 71 | 62 | 0.0 | 1.7 | 0.00 | 0.00 | 0.00 | 29 | 1016.4 |
| 20260507044131 | 72 | 84 | 0.0 | 1.7 | 0.00 | 0.00 | 0.00 | 29 | 1016.2 |
| 20260507043627 | 72 | 64 | 0.9 | 2.6 | 0.00 | 0.00 | 0.00 | 29 | 1016.4 |
| 20260507043125 | 72 | 70 | 0.9 | 2.6 | 0.00 | 0.00 | 0.00 | 29 | 1016.5 |
| 20260507042621 | 72 | 72 | 0.0 | 0.9 | 0.00 | 0.00 | 0.00 | 29 | 1016.2 |
| 20260507042116 | 72 | 53 | 0.0 | 1.7 | 0.00 | 0.00 | 0.00 | 29 | 1016.2 |
| 20260507041613 | 73 | 38 | 0.0 | 1.7 | 0.00 | 0.00 | 0.00 | 29 | 1016.4 |
| 20260507041110 | 73 | 135 | 0.0 | 1.7 | 0.00 | 0.00 | 0.00 | 29 | 1016.1 |
| 20260507040607 | 73 | 66 | 0.0 | 1.7 | 0.00 | 0.00 | 0.00 | 29 | 1016.0 |
| 20260507035559 | 75 | 49 | 0.0 | 1.7 | 0.00 | 0.00 | 0.00 | 26 | 1015.8 |
| 20260507035055 | 75 | 294 | 0.0 | 1.7 | 0.00 | 0.00 | 0.00 | 25 | 1015.8 |
| 20260507034552 | 76 | 294 | 0.9 | 1.7 | 0.00 | 0.00 | 0.00 | 24 | 1015.7 |
| 20260507034050 | 75 | 333 | 0.0 | 0.9 | 0.00 | 0.00 | 0.00 | 25 | 1015.6 |
| 20260507033547 | 76 | 267 | 1.7 | 2.6 | 0.00 | 0.00 | 0.00 | 24 | 1015.7 |
| 20260507033039 | 76 | 235 | 0.0 | 1.7 | 0.00 | 0.00 | 0.00 | 24 | 1015.5 |
| 20260507032536 | 76 | 325 | 0.9 | 1.7 | 0.00 | 0.00 | 0.00 | 25 | 1015.5 |
| 20260507032032 | 76 | 269 | 0.0 | 1.7 | 0.00 | 0.00 | 0.00 | 24 | 1015.6 |
| 20260507031528 | 76 | 240 | 0.9 | 2.6 | 0.00 | 0.00 | 0.00 | 24 | 1015.4 |
| 20260507031026 | 76 | 242 | 0.9 | 1.7 | 0.00 | 0.00 | 0.00 | 23 | 1015.2 |
| 20260507030522 | 76 | 256 | 0.0 | 0.9 | 0.00 | 0.00 | 0.00 | 24 | 1015.2 |
| 20260507030021 | 77 | 239 | 1.7 | 1.7 | 0.00 | 0.00 | 0.00 | 23 | 1015.3 |
| 20260507025517 | 77 | 249 | 0.0 | 2.6 | 0.00 | 0.00 | 0.00 | 23 | 1015.5 |
| 20260507025015 | 77 | 249 | 0.0 | 2.6 | 0.00 | 0.00 | 0.00 | 23 | 1014.9 |
| 20260507024512 | 77 | 255 | 0.0 | 2.6 | 0.00 | 0.00 | 0.00 | 23 | 1015.2 |
| 20260507024009 | 78 | 250 | 0.9 | 2.6 | 0.00 | 0.00 | 0.00 | 22 | 1015.1 |
| 20260507023505 | 78 | 261 | 2.6 | 3.5 | 0.00 | 0.00 | 0.00 | 22 | 1014.9 |
| 20260507023002 | 78 | 237 | 2.6 | 5.2 | 0.00 | 0.00 | 0.00 | 22 | 1015.0 |
| 20260507022459 | 78 | 257 | 2.6 | 5.2 | 0.00 | 0.00 | 0.00 | 22 | 1014.9 |
| 20260507021954 | 78 | 286 | 1.7 | 3.5 | 0.00 | 0.00 | 0.00 | 22 | 1014.9 |
| 20260507021450 | 79 | 285 | 2.6 | 6.1 | 0.00 | 0.00 | 0.00 | 22 | 1014.7 |
| 20260507020947 | 79 | 320 | 2.6 | 3.5 | 0.00 | 0.00 | 0.00 | 22 | 1014.8 |
| 20260507020444 | 79 | 274 | 1.7 | 6.1 | 0.00 | 0.00 | 0.00 | 22 | 1014.8 |
| 20260507015941 | 79 | 241 | 1.7 | 6.1 | 0.00 | 0.00 | 0.00 | 22 | 1014.6 |
| 20260507015440 | 79 | 237 | 2.6 | 5.2 | 0.00 | 0.00 | 0.00 | 22 | 1014.6 |
| 20260507014936 | 80 | 251 | 1.7 | 6.1 | 0.00 | 0.00 | 0.00 | 21 | 1014.5 |
| 20260507014433 | 80 | 330 | 2.6 | 5.2 | 0.00 | 0.00 | 0.00 | 21 | 1014.7 |
| 20260507013929 | 81 | 246 | 0.9 | 3.5 | 0.00 | 0.00 | 0.00 | 21 | 1014.6 |
| 20260507013426 | 81 | 248 | 2.6 | 8.7 | 0.00 | 0.00 | 0.00 | 21 | 1014.6 |
| 20260507012924 | 82 | 293 | 0.9 | 4.3 | 0.00 | 0.00 | 0.00 | 21 | 1014.6 |
| 20260507012420 | 81 | 338 | 0.0 | 6.1 | 0.00 | 0.00 | 0.00 | 21 | 1014.6 |
| 20260507011916 | 81 | 258 | 1.7 | 7.0 | 0.00 | 0.00 | 0.00 | 21 | 1014.3 |
| 20260507011414 | 82 | 283 | 7.0 | 7.0 | 0.00 | 0.00 | 0.00 | 21 | 1014.5 |
| 20260507010908 | 82 | 261 | 6.1 | 7.8 | 0.00 | 0.00 | 0.00 | 20 | 1014.6 |
| 20260507010403 | 82 | 238 | 2.6 | 7.0 | 0.00 | 0.00 | 0.00 | 21 | 1014.5 |
| 20260507005901 | 82 | 257 | 4.3 | 8.7 | 0.00 | 0.00 | 0.00 | 20 | 1014.5 |
| 20260507005357 | 83 | 230 | 4.3 | 5.2 | 0.00 | 0.00 | 0.00 | 20 | 1014.6 |
| 20260507004854 | 83 | 243 | 3.5 | 5.2 | 0.00 | 0.00 | 0.00 | 21 | 1014.5 |
| 20260507004351 | 82 | 231 | 2.6 | 7.0 | 0.00 | 0.00 | 0.00 | 21 | 1014.8 |
| 20260507003848 | 83 | 296 | 3.5 | 6.1 | 0.00 | 0.00 | 0.00 | 21 | 1014.7 |
| 20260507003338 | 83 | 234 | 3.5 | 6.1 | 0.00 | 0.00 | 0.00 | 21 | 1014.3 |
| 20260507002833 | 82 | 244 | 6.1 | 11.3 | 0.00 | 0.00 | 0.00 | 21 | 1014.4 |
| 20260507002329 | 83 | 236 | 5.2 | 5.2 | 0.00 | 0.00 | 0.00 | 21 | 1014.4 |
| 20260507001827 | 84 | 278 | 1.7 | 8.7 | 0.00 | 0.00 | 0.00 | 20 | 1014.3 |
| 20260507001324 | 83 | 226 | 4.3 | 7.8 | 0.00 | 0.00 | 0.00 | 20 | 1014.5 |
| 20260507000820 | 84 | 165 | 0.0 | 6.1 | 0.00 | 0.00 | 0.00 | 21 | 1014.5 |
| 20260507000316 | 83 | 192 | 0.9 | 5.2 | 0.00 | 0.00 | 0.00 | 22 | 1014.7 |
| 20260506235812 | 83 | 186 | 0.9 | 3.5 | 0.00 | 0.00 | 0.00 | 20 | 1014.5 |
| 20260506235309 | 82 | 243 | 3.5 | 8.7 | 0.00 | 0.00 | 0.00 | 20 | 1014.6 |
| 20260506234805 | 82 | 344 | 2.6 | 7.0 | 0.00 | 0.00 | 0.00 | 21 | 1014.6 |
| 20260506234303 | 83 | 300 | 4.3 | 7.0 | 0.00 | 0.00 | 0.00 | 20 | 1014.6 |
| 20260506233800 | 82 | 176 | 0.9 | 5.2 | 0.00 | 0.00 | 0.00 | 21 | 1014.5 |
| 20260506233256 | 82 | 251 | 2.6 | 5.2 | 0.00 | 0.00 | 0.00 | 22 | 1014.5 |
| 20260506232753 | 82 | 268 | 2.6 | 8.7 | 0.00 | 0.00 | 0.00 | 21 | 1014.6 |
| 20260506232248 | 83 | 293 | 3.5 | 5.2 | 0.00 | 0.00 | 0.00 | 21 | 1014.7 |
| 20260506231745 | 84 | 335 | 1.7 | 5.2 | 0.00 | 0.00 | 0.00 | 20 | 1014.4 |
| 20260506231243 | 83 | 249 | 4.3 | 7.0 | 0.00 | 0.00 | 0.00 | 21 | 1014.7 |
| 20260506230734 | 82 | 245 | 4.3 | 11.3 | 0.00 | 0.00 | 0.00 | 21 | 1014.9 |
| 20260506230231 | 82 | 245 | 3.5 | 7.8 | 0.00 | 0.00 | 0.00 | 21 | 1014.7 |
| 20260506225728 | 81 | 281 | 4.3 | 6.1 | 0.00 | 0.00 | 0.00 | 21 | 1014.7 |
| 20260506225225 | 82 | 312 | 9.6 | 11.3 | 0.00 | 0.00 | 0.00 | 21 | 1014.9 |
| 20260506224721 | 83 | 206 | 2.6 | 6.1 | 0.00 | 0.00 | 0.00 | 21 | 1015.1 |
| 20260506224218 | 84 | 248 | 7.0 | 8.7 | 0.00 | 0.00 | 0.00 | 20 | 1015.1 |
| 20260506223715 | 81 | 256 | 1.7 | 10.4 | 0.00 | 0.00 | 0.00 | 22 | 1015.0 |
| 20260506223210 | 82 | 222 | 1.7 | 5.2 | 0.00 | 0.00 | 0.00 | 22 | 1015.1 |
| 20260506222707 | 81 | 288 | 1.7 | 8.7 | 0.00 | 0.00 | 0.00 | 22 | 1015.3 |
| 20260506222203 | 81 | 327 | 6.1 | 10.4 | 0.00 | 0.00 | 0.00 | 22 | 1015.3 |
| 20260506221701 | 80 | 351 | 5.2 | 7.8 | 0.00 | 0.00 | 0.00 | 22 | 1015.5 |
| 20260506221159 | 83 | 281 | 5.2 | 8.7 | 0.00 | 0.00 | 0.00 | 21 | 1015.4 |
| 20260506220656 | 84 | 343 | 3.5 | 5.2 | 0.00 | 0.00 | 0.00 | 21 | 1015.4 |
| 20260506220151 | 81 | 294 | 3.5 | 7.0 | 0.00 | 0.00 | 0.00 | 22 | 1015.7 |
| 20260506215648 | 80 | 265 | 1.7 | 6.1 | 0.00 | 0.00 | 0.00 | 23 | 1015.6 |
| 20260506215143 | 80 | 320 | 3.5 | 11.3 | 0.00 | 0.00 | 0.00 | 22 | 1015.6 |
| 20260506214640 | 80 | 118 | 2.6 | 6.1 | 0.00 | 0.00 | 0.00 | 22 | 1015.7 |
| 20260506214137 | 81 | 264 | 2.6 | 6.1 | 0.00 | 0.00 | 0.00 | 22 | 1015.9 |
| 20260506213636 | 81 | 255 | 3.5 | 7.8 | 0.00 | 0.00 | 0.00 | 22 | 1015.8 |
| 20260506213133 | 82 | 258 | 3.5 | 7.8 | 0.00 | 0.00 | 0.00 | 21 | 1015.6 |
| 20260506212630 | 80 | 302 | 4.3 | 8.7 | 0.00 | 0.00 | 0.00 | 22 | 1016.1 |
| 20260506212124 | 80 | 324 | 8.7 | 13.0 | 0.00 | 0.00 | 0.00 | 22 | 1016.1 |
| 20260506211620 | 81 | 190 | 0.0 | 5.2 | 0.00 | 0.00 | 0.00 | 23 | 1016.0 |
| 20260506211117 | 80 | 214 | 0.9 | 6.1 | 0.00 | 0.00 | 0.00 | 23 | 1016.1 |
| 20260506210614 | 80 | 243 | 1.7 | 7.0 | 0.00 | 0.00 | 0.00 | 23 | 1016.1 |
| 20260506210110 | 79 | 264 | 2.6 | 11.3 | 0.00 | 0.00 | 0.00 | 23 | 1016.2 |
| 20260506205608 | 80 | 323 | 3.5 | 8.7 | 0.00 | 0.00 | 0.00 | 22 | 1016.5 |
| 20260506205102 | 78 | 207 | 0.9 | 9.6 | 0.00 | 0.00 | 0.00 | 24 | 1016.2 |
| 20260506204601 | 79 | 265 | 7.8 | 9.6 | 0.00 | 0.00 | 0.00 | 22 | 1016.7 |
| 20260506204058 | 79 | 236 | 5.2 | 8.7 | 0.00 | 0.00 | 0.00 | 22 | 1016.5 |
| 20260506203556 | 79 | 221 | 3.5 | 10.4 | 0.00 | 0.00 | 0.00 | 23 | 1017.0 |
| 20260506203052 | 78 | 298 | 4.3 | 10.4 | 0.00 | 0.00 | 0.00 | 23 | 1016.9 |
| 20260506202549 | 78 | 312 | 7.0 | 8.7 | 0.00 | 0.00 | 0.00 | 23 | 1016.8 |
| 20260506202046 | 79 | 289 | 2.6 | 6.1 | 0.00 | 0.00 | 0.00 | 23 | 1016.8 |
| 20260506201543 | 78 | 253 | 2.6 | 7.0 | 0.00 | 0.00 | 0.00 | 23 | 1016.8 |
| 20260506201040 | 78 | 309 | 2.6 | 9.6 | 0.00 | 0.00 | 0.00 | 23 | 1017.0 |
| 20260506200536 | 77 | 43 | 1.7 | 7.0 | 0.00 | 0.00 | 0.00 | 24 | 1017.1 |
| 20260506200033 | 77 | 320 | 5.2 | 9.6 | 0.00 | 0.00 | 0.00 | 24 | 1017.3 |
| 20260506195530 | 79 | 290 | 2.6 | 8.7 | 0.00 | 0.00 | 0.00 | 22 | 1017.3 |
| 20260506195026 | 77 | 305 | 3.5 | 7.8 | 0.00 | 0.00 | 0.00 | 24 | 1017.1 |
| 20260506194524 | 77 | 243 | 1.7 | 9.6 | 0.00 | 0.00 | 0.00 | 24 | 1017.3 |
| 20260506194020 | 78 | 271 | 6.1 | 9.6 | 0.00 | 0.00 | 0.00 | 24 | 1017.3 |
| 20260506193518 | 77 | 62 | 0.9 | 7.8 | 0.00 | 0.00 | 0.00 | 25 | 1017.4 |
| 20260506193015 | 78 | 235 | 7.8 | 9.6 | 0.00 | 0.00 | 0.00 | 23 | 1017.3 |
| 20260506192511 | 77 | 334 | 3.5 | 7.8 | 0.00 | 0.00 | 0.00 | 24 | 1017.4 |
| 20260506192007 | 76 | 287 | 3.5 | 8.7 | 0.00 | 0.00 | 0.00 | 24 | 1017.6 |
| 20260506191504 | 77 | 240 | 3.5 | 6.1 | 0.00 | 0.00 | 0.00 | 24 | 1017.5 |
| 20260506191001 | 78 | 339 | 4.3 | 7.8 | 0.00 | 0.00 | 0.00 | 23 | 1017.6 |
| 20260506190458 | 76 | 319 | 4.3 | 7.8 | 0.00 | 0.00 | 0.00 | 24 | 1017.6 |
| 20260506185954 | 76 | 262 | 8.7 | 9.6 | 0.00 | 0.00 | 0.00 | 25 | 1017.6 |
| 20260506185451 | 76 | 318 | 6.1 | 12.2 | 0.00 | 0.00 | 0.00 | 26 | 1017.8 |
| 20260506184943 | 74 | 10 | 1.7 | 11.3 | 0.00 | 0.00 | 0.00 | 29 | 1017.9 |
| 20260506184439 | 74 | 285 | 1.7 | 7.8 | 0.00 | 0.00 | 0.00 | 27 | 1017.8 |
| 20260506183937 | 76 | 296 | 4.3 | 7.0 | 0.00 | 0.00 | 0.00 | 26 | 1017.8 |
| 20260506183432 | 75 | 233 | 2.6 | 9.6 | 0.00 | 0.00 | 0.00 | 28 | 1018.0 |
| 20260506182929 | 75 | 341 | 2.6 | 7.8 | 0.00 | 0.00 | 0.00 | 28 | 1018.3 |
| 20260506182427 | 76 | 261 | 1.7 | 5.2 | 0.00 | 0.00 | 0.00 | 27 | 1018.2 |
| 20260506181924 | 75 | 233 | 2.6 | 7.0 | 0.00 | 0.00 | 0.00 | 28 | 1018.1 |
| 20260506181422 | 74 | 243 | 5.2 | 9.6 | 0.00 | 0.00 | 0.00 | 29 | 1018.2 |
| 20260506180918 | 74 | 249 | 3.5 | 8.7 | 0.00 | 0.00 | 0.00 | 29 | 1018.3 |
| 20260506180414 | 75 | 188 | 0.9 | 3.5 | 0.00 | 0.00 | 0.00 | 29 | 1018.2 |
| 20260506175912 | 73 | 272 | 6.1 | 7.0 | 0.00 | 0.00 | 0.00 | 29 | 1018.3 |
| 20260506175408 | 74 | 299 | 2.6 | 7.8 | 0.00 | 0.00 | 0.00 | 29 | 1018.7 |
| 20260506174905 | 73 | 175 | 0.9 | 7.8 | 0.00 | 0.00 | 0.00 | 31 | 1018.5 |
| 20260506174403 | 73 | 219 | 0.0 | 7.8 | 0.00 | 0.00 | 0.00 | 31 | 1018.5 |
| 20260506173900 | 73 | 194 | 1.7 | 7.0 | 0.00 | 0.00 | 0.00 | 31 | 1018.7 |
| 20260506173356 | 72 | 276 | 9.6 | 9.6 | 0.00 | 0.00 | 0.00 | 30 | 1018.5 |
| 20260506172854 | 73 | 339 | 3.5 | 7.8 | 0.00 | 0.00 | 0.00 | 30 | 1018.6 |
| 20260506172350 | 72 | 264 | 3.5 | 7.0 | 0.00 | 0.00 | 0.00 | 31 | 1018.3 |
| 20260506171848 | 72 | 292 | 2.6 | 6.1 | 0.00 | 0.00 | 0.00 | 31 | 1018.7 |
| 20260506171344 | 73 | 244 | 0.9 | 4.3 | 0.00 | 0.00 | 0.00 | 30 | 1018.3 |
| 20260506170842 | 72 | 98 | 1.7 | 4.3 | 0.00 | 0.00 | 0.00 | 31 | 1018.2 |
| 20260506170337 | 71 | 188 | 1.7 | 4.3 | 0.00 | 0.00 | 0.00 | 32 | 1018.3 |
| 20260506165831 | 73 | 326 | 1.7 | 5.2 | 0.00 | 0.00 | 0.00 | 31 | 1018.2 |
| 20260506165328 | 71 | 293 | 1.7 | 7.8 | 0.00 | 0.00 | 0.00 | 32 | 1018.2 |
| 20260506164819 | 72 | 339 | 2.6 | 3.5 | 0.00 | 0.00 | 0.00 | 31 | 1018.5 |
| 20260506164316 | 71 | 236 | 1.7 | 6.1 | 0.00 | 0.00 | 0.00 | 33 | 1018.5 |
| 20260506163814 | 70 | 280 | 2.6 | 6.1 | 0.00 | 0.00 | 0.00 | 32 | 1018.2 |
| 20260506163308 | 70 | 206 | 0.9 | 7.0 | 0.00 | 0.00 | 0.00 | 34 | 1018.1 |
| 20260506162803 | 71 | 254 | 3.5 | 7.0 | 0.00 | 0.00 | 0.00 | 32 | 1018.3 |
| 20260506162301 | 72 | 222 | 0.9 | 3.5 | 0.00 | 0.00 | 0.00 | 31 | 1018.1 |
| 20260506161753 | 71 | 211 | 0.9 | 4.3 | 0.00 | 0.00 | 0.00 | 32 | 1018.1 |
| 20260506161250 | 71 | 180 | 0.9 | 4.3 | 0.00 | 0.00 | 0.00 | 33 | 1018.1 |